PRAETORIAN SDA_611

Satellite information

Favourite Embed

Satellite Type and Status

PAYLOADIN ORBIT

Key statistics

Satellite PRAETORIAN SDA_611 at a glance.

Uptime

41

Days in orbit

Revolutions

≈ 13.8

Per day

Orbit

LEO

Low Earth Orbit

Inclination

81.3

Latest

Satellite identification and parameters

Extended collection of information and parameters for PRAETORIAN SDA_611.

Object identification

Identified? True

Debris? False

Object name: PRAETORIAN SDA_611

International designator: 2025-203K

Object number (NORAD): 65574

Object ID (CCSDS): 65574

Country: UNITED STATES OF AMERICA (US)

Current information (Y/N): Y

Orbital parameters

Period: 104.012 minutes

Inclination: 81.3011 deg

SMA: 7326.255 km

Apoapsis: 953.224 km

Periapsis: 943.016 km

RAAN: 232.5246 deg

Eccentricy: 0.00069663

Argument of periapsis: 123.3165 deg

Mean anomaly: 236.866 deg

Mean motion: 13.84457734 rev/day

Mean motion (dot): 0.00000082 rev/day2

B* drag term: 0.000062901726 1/REarth

Two-line elements (TLE)

Creation date: Oct. 21, 2025, 3:26 a.m.

Reference frame: TEME

Reference center: EARTH

Epoch: Oct. 20, 2025, 7:37 p.m. UTC

TLE line 0: 0 PRAETORIAN SDA_611

TLE line 1: 1 65574U 25203K 25293.81745365 .00000082 00000-0 62902-4 0 9992

TLE line 2: 2 65574 81.3011 232.5246 0006966 123.3165 236.8660 13.84457734 5579

Live tracking on map

Real-time ground track for satellite PRAETORIAN SDA_611.

In-orbit conjunctions

There are no conjunctions computed for PRAETORIAN SDA_611, at the moment. Check back to stay up to date, as we update our databases every day.

Go to all conjunctions

Associated space launch

Tranche 1 Transport Layer B is one of six missions by the United States Space Force Space Development Agency (SDA) for the Proliferated Warfighter Space Architecture (PWSA) Tranche 1 Transport Layer constellation, which will provide assured, resilient, low-latency military data and connectivity worldwide to the full range of warfighter platforms from Low Earth Orbit satellites. The constellation will be interconnected with Optical Inter-Satellite Links (OISLs) which have significantly increased performance over existing radio frequency crosslinks. It is expected to operate over Ka band, have stereo coverage and be dynamically networked for simpler hand-offs, greater bandwidth and fault tolerance. This launch carries 21 satellites manufactured by York Space Systems.

PRAETORIAN SDA_611 was lifted into orbit during the mission ‘Falcon 9 Block 5 | SDA Tranche 1 Transport Layer B’, on board a Falcon 9 space rocket.

The launch took place on Sept. 10, 2025, 2:12 p.m. from Space Launch Complex 4E.

For more information about the launch, click the button.

Launch to space Falcon 9 Block 5 | SDA Tranche 1 Transport Layer B
Falcon 9 Block 5 | SDA Tranche 1 Transport Layer B

Agency: Space Development Agency

Status: Launch Successful

Launch date: Sept. 10, 2025, 2:12 p.m. UTC

Rocket: Falcon 9

Launch pad: Space Launch Complex 4E

Location: Vandenberg SFB, CA, USA

...

Latest news about this satellite

News about space launch
New U.S. military satellite constellation takes shape with first launch from Vandenberg SFB

The Space Development Agency’s Proliferated Warfighter Space Architecture constellation is expected to deliver global coverage beginning in 2027. Launch from Vandenberg Space Force Base occurred at 7:12 a.m. PDT (10:12 a.m. EDT / 1412 UTC).

News about space launch
SpaceX launches 21 satellites for Space Development Agency ‘Transport Layer’ military network

The satellites, made by York Space Systems, make up the first plane of a mesh network projected to have 126 spacecraft The post SpaceX launches 21 satellites for Space Development Agency ‘Transport Layer’ military network appeared first on SpaceNews.

News about space launch
Live coverage: Space Development Agency, SpaceX to launch next-gen national security satellites

The 21 satellites from York Space Systems are the first in the SDA’s Tranche 1 Transport Layer satellite constellation. SpaceX is targeting liftoff from pad 4 East at Vandenberg Space Force Base at 7:12 a.m. PDT (10:12 a.m. EDT / 1412 UTC).


Newsletter sign-up

Weekly statistics, charts and insights to help you stay on top of the space industry.